Waarnemingen

Advertentie
Mijn weer
Leucate/Semaphore, Frankrijk (7666): temperatuur & dauwpunt: 18.05.2017 04:00:00 - 24.05.2017 04:00:00 (CEST)Leucate/Semaphore, Frankrijk (7666): windsnelheid & windstoten: 18.05.2017 04:00:00 - 24.05.2017 04:00:00 (CEST)Leucate/Semaphore, Frankrijk (7666): windrichting: 18.05.2017 04:00:00 - 24.05.2017 04:00:00 (CEST)Leucate/Semaphore, Frankrijk (7666): luchtdruk: 18.05.2017 04:00:00 - 24.05.2017 04:00:00 (CEST)Leucate/Semaphore, Frankrijk (7666): zicht: 18.05.2017 04:00:00 - 24.05.2017 04:00:00 (CEST)Leucate/Semaphore, Frankrijk (7666): neerslag: 18.05.2017 04:00:00 - 24.05.2017 04:00:00 (CEST)
Datum & Tijd tt [°C] td [°C] ff [km/u] ff [kn] fx [km/u] fx [kn] dd ppp [hPa] vv [km] rr [mm]
24.05.2017 04:00:00 18,7 12,4 14 7 27 15 WNW 1019,5 - 0,0
24.05.2017 03:00:00 19,7 12,7 12 7 38 20 NW 1019,7 - 0,0
24.05.2017 02:00:00 20,5 12,7 22 12 45 24 NW 1019,7 - 0,0
24.05.2017 01:00:00 20,5 12,7 24 13 44 24 NW 1019,7 - 0,0
24.05.2017 00:00:00 19,9 12,2 21 11 41 22 NW 1019,8 - 0,0
23.05.2017 23:00:00 19,9 12,6 23 12 40 21 NW 1019,5 - 0,0
23.05.2017 22:00:00 20,6 12,3 21 11 41 22 NW 1019,1 - 0,0
23.05.2017 21:00:00 21,3 13,0 23 13 52 28 NW 1018,9 - 0,0
23.05.2017 20:00:00 23,6 13,5 28 15 48 26 NW 1018,2 - 0,0
23.05.2017 19:00:00 24,6 13,2 29 16 55 30 NW 1018,4 - 0,0
23.05.2017 18:00:00 25,2 14,0 27 15 59 32 NW 1018,6 - 0,0
23.05.2017 17:00:00 25,8 14,0 29 16 55 30 NW 1018,8 - 0,0
23.05.2017 16:00:00 25,3 13,8 31 17 54 29 NW 1019,2 - 0,0
23.05.2017 15:00:00 24,9 14,4 32 17 57 31 NNW 1019,7 - 0,0
23.05.2017 14:00:00 24,5 14,3 30 16 62 34 NW 1019,9 25 0,0
23.05.2017 13:00:00 23,3 14,3 34 18 69 37 NW 1020,2 - 0,0
23.05.2017 12:00:00 23,4 14,4 31 17 64 34 NW 1020,0 - 0,0
23.05.2017 11:00:00 23,0 14,3 31 17 59 32 NW 1019,7 22 0,0
23.05.2017 10:00:00 20,9 13,8 33 18 64 34 NW 1019,7 - 0,0
23.05.2017 09:00:00 20,2 13,6 26 14 55 30 NW 1019,5 - 0,0
23.05.2017 08:00:00 18,1 13,6 29 16 66 36 NW 1019,0 22 0,0
23.05.2017 07:00:00 17,6 13,9 26 14 43 23 NW 1019,0 - 0,0
23.05.2017 06:00:00 18,9 14,6 20 11 45 24 NW 1018,4 - 0,0
23.05.2017 05:00:00 19,4 15,3 18 10 42 23 NW 1018,2 - 0,0
23.05.2017 04:00:00 19,5 15,2 11 6 23 12 NW 1018,2 - 0,0
23.05.2017 03:00:00 17,7 15,9 6 3 16 9 WZW 1018,4 - 0,0
23.05.2017 02:00:00 17,3 15,3 9 5 15 8 WZW 1018,4 - 0,0
23.05.2017 01:00:00 17,7 15,5 11 6 19 11 NNW 1018,5 - 0,0
23.05.2017 00:00:00 17,0 15,9 7 4 10 5 N 1018,8 - 0,0
22.05.2017 23:00:00 16,5 15,5 5 3 7 4 WNW 1019,0 - 0,0
22.05.2017 22:00:00 16,7 15,7 5 3 6 3 NNW 1018,9 - 0,0
22.05.2017 21:00:00 16,9 15,8 4 2 15 8 ZZO 1018,6 - 0,0
22.05.2017 20:00:00 17,0 15,7 10 5 19 10 O 1018,1 18 0,0
22.05.2017 19:00:00 17,3 15,6 8 5 17 9 ONO 1018,1 - 0,0
22.05.2017 18:00:00 17,5 15,8 9 5 23 13 O 1018,5 - 0,0
22.05.2017 17:00:00 18,0 16,2 12 7 26 14 O 1018,4 - 0,0
22.05.2017 16:00:00 17,9 15,7 13 7 25 13 O 1018,5 - 0,0
22.05.2017 15:00:00 18,3 15,9 18 10 24 13 O 1018,6 - 0,0
22.05.2017 14:00:00 18,3 15,7 16 8 26 14 O 1018,7 18 0,0
22.05.2017 13:00:00 18,7 15,8 16 9 25 14 O 1018,5 - 0,0
22.05.2017 12:00:00 19,1 16,1 10 5 16 8 O 1018,5 - 0,0
22.05.2017 11:00:00 18,0 15,8 9 5 18 10 O 1018,4 18 0,0
22.05.2017 10:00:00 18,0 16,2 14 8 24 13 OZO 1017,9 - 0,0
22.05.2017 09:00:00 16,7 15,4 18 10 33 18 OZO 1017,4 - 0,0
22.05.2017 08:00:00 16,7 15,6 24 13 37 20 O 1016,8 15 0,0
22.05.2017 07:00:00 16,5 15,4 24 13 36 19 O 1016,3 - 0,0
22.05.2017 06:00:00 16,5 15,4 29 16 41 22 O 1016,1 - 0,0
22.05.2017 05:00:00 16,5 15,4 22 12 37 20 O 1015,9 18 0,0
22.05.2017 04:00:00 16,5 15,5 21 12 34 18 O 1016,0 - 0,0
22.05.2017 03:00:00 16,4 15,4 23 12 32 17 O 1016,5 - 0,0
22.05.2017 02:00:00 16,4 15,3 22 12 31 17 O 1017,3 - 0,0
22.05.2017 01:00:00 16,5 15,2 20 11 31 17 OZO 1017,7 - 0,0
22.05.2017 00:00:00 16,5 15,2 17 9 24 13 OZO 1018,1 - 0,0
21.05.2017 23:00:00 16,5 14,9 7 4 14 8 ZO 1018,5 - 0,0
21.05.2017 22:00:00 16,7 14,3 6 4 13 7 ZZO 1018,6 - 0,0
21.05.2017 21:00:00 17,4 12,9 11 6 24 13 Z 1018,4 - 0,0
21.05.2017 20:00:00 18,7 10,0 19 10 27 15 Z 1018,5 25 0,0
21.05.2017 19:00:00 18,4 9,2 20 11 28 15 Z 1018,6 - 0,0
21.05.2017 18:00:00 18,8 10,1 21 11 29 15 Z 1018,9 - 0,0
21.05.2017 17:00:00 19,1 10,4 20 11 26 14 Z 1019,3 - 0,0
21.05.2017 16:00:00 20,2 11,9 14 8 24 13 ZZO 1019,9 - 0,0
21.05.2017 15:00:00 19,9 7,6 20 11 24 13 ZO 1020,4 - 0,0
21.05.2017 14:00:00 19,5 10,2 18 10 21 11 ZO 1020,8 30 0,0
21.05.2017 13:00:00 19,4 10,1 11 6 14 8 ZZO 1021,6 - 0,0
21.05.2017 12:00:00 18,6 9,6 9 5 13 7 ZZO 1021,8 - 0,0
21.05.2017 11:00:00 18,9 9,9 6 3 16 9 O 1022,1 25 0,0
21.05.2017 10:00:00 19,0 10,0 3 2 13 7 O 1022,2 - 0,0
21.05.2017 09:00:00 18,3 7,7 8 4 16 8 NNW 1022,2 - 0,0
21.05.2017 08:00:00 15,7 8,4 10 5 18 10 W 1022,5 25 0,0
21.05.2017 07:00:00 13,0 7,9 16 8 19 10 W 1022,3 - 0,0
21.05.2017 06:00:00 13,6 8,0 11 6 34 19 W 1022,4 - 0,0
21.05.2017 05:00:00 13,8 8,2 22 12 37 20 NW 1022,2 25 0,0
21.05.2017 04:00:00 14,1 8,9 16 9 32 17 NW 1022,8 - 0,0
21.05.2017 03:00:00 14,3 8,7 16 8 28 15 NW 1023,4 - 0,0
21.05.2017 02:00:00 13,9 7,9 19 11 26 14 W 1024,0 - 0,0
21.05.2017 01:00:00 14,1 7,6 13 7 18 10 W 1024,7 - 0,0
21.05.2017 00:00:00 15,5 7,5 12 6 20 11 NW 1024,7 - 0,0
20.05.2017 23:00:00 16,3 7,2 9 5 23 12 NW 1024,5 - 0,0
20.05.2017 22:00:00 17,4 8,3 12 7 33 18 NW 1024,0 - 0,0
20.05.2017 21:00:00 19,0 6,8 21 11 51 28 NW 1023,5 - 0,0
20.05.2017 20:00:00 20,6 6,5 26 14 54 29 NW 1023,0 25 0,0
20.05.2017 19:00:00 21,8 6,8 29 16 59 32 NW 1022,6 - 0,0
20.05.2017 18:00:00 21,9 7,7 30 16 82 44 NW 1022,3 - 0,0
20.05.2017 17:00:00 21,3 7,5 39 21 73 39 NW 1022,1 25 0,0
20.05.2017 16:00:00 20,9 8,8 41 22 72 39 NNW 1021,7 - 0,0
20.05.2017 15:00:00 20,7 8,0 43 23 77 42 NW 1021,9 - 0,0
20.05.2017 14:00:00 20,4 8,7 31 17 64 34 NW 1022,6 - 0,0
20.05.2017 13:00:00 20,2 7,9 28 15 62 34 NW 1023,0 - 0,0
20.05.2017 12:00:00 19,5 6,6 29 16 57 31 NW 1023,0 - 0,0
20.05.2017 11:00:00 18,3 5,8 29 15 57 31 NW 1022,8 22 0,0
20.05.2017 10:00:00 16,3 6,4 27 15 54 29 NW 1023,0 - 0,0
20.05.2017 09:00:00 15,2 6,7 21 12 46 25 NW 1023,2 - 0,0
20.05.2017 08:00:00 13,6 6,7 21 11 37 20 NW 1023,1 18 0,0
20.05.2017 07:00:00 12,0 6,5 18 10 44 24 NW 1022,9 - 0,0
20.05.2017 06:00:00 12,3 6,6 32 17 58 31 NW 1022,1 - 0,0
20.05.2017 05:00:00 11,8 6,7 22 12 42 23 NW 1021,7 - 0,0
20.05.2017 04:00:00 11,8 7,1 15 8 27 15 WNW 1022,0 - 0,0
20.05.2017 03:00:00 12,7 7,4 16 9 48 26 WNW 1022,1 - 0,0
20.05.2017 02:00:00 13,2 7,0 23 12 54 29 NW 1021,5 - 0,0
20.05.2017 01:00:00 14,0 6,8 29 15 56 30 NW 1021,2 - 0,0
20.05.2017 00:00:00 14,2 7,0 16 9 44 24 WNW 1022,1 - 0,0
19.05.2017 23:00:00 15,0 7,3 16 9 32 18 WNW 1021,9 - 0,0
19.05.2017 22:00:00 15,9 6,9 15 8 49 26 NW 1021,3 - 0,0
19.05.2017 21:00:00 16,8 6,9 25 14 50 27 NW 1020,2 - 0,0
19.05.2017 20:00:00 18,1 7,2 18 10 48 26 NW 1019,4 - 0,0
19.05.2017 19:00:00 18,7 5,9 24 13 46 25 NW 1019,0 - 0,0
19.05.2017 18:00:00 19,6 5,6 22 12 51 27 NW 1018,3 - 0,0
19.05.2017 17:00:00 21,2 6,3 26 14 59 32 NW 1018,0 - 0,0
19.05.2017 16:00:00 20,6 5,0 31 17 61 33 NW 1017,6 - 0,0
19.05.2017 15:00:00 20,4 6,0 24 13 53 29 NNW 1018,3 - 0,0
19.05.2017 14:00:00 19,3 6,7 29 16 57 31 NW 1018,6 25 0,0
19.05.2017 13:00:00 18,3 7,1 26 14 50 27 NW 1018,8 - 0,0
19.05.2017 12:00:00 17,0 7,3 28 15 53 28 NW 1019,4 - 0,0
19.05.2017 11:00:00 15,1 7,9 31 17 56 30 NNW 1019,2 - 0,0
19.05.2017 10:00:00 15,1 8,1 25 14 50 27 NW 1019,2 - 0,0
19.05.2017 09:00:00 14,4 8,6 23 12 46 25 NW 1018,6 - 0,0
19.05.2017 08:00:00 12,8 8,1 17 9 47 26 NNW 1018,4 25 0,0
19.05.2017 07:00:00 11,5 7,8 24 13 44 24 NNW 1017,3 - 0,0
19.05.2017 06:00:00 11,2 7,5 22 12 44 24 NW 1017,1 - 0,0
19.05.2017 05:00:00 11,1 7,4 19 11 50 27 NW 1017,1 20 0,0
19.05.2017 04:00:00 10,8 7,1 24 13 47 26 NW 1017,1 - 0,0
19.05.2017 03:00:00 9,9 7,3 19 10 42 23 NW 1017,0 - 0,6
19.05.2017 02:00:00 10,1 7,2 26 14 58 32 WNW 1017,6 - 0,4
19.05.2017 01:00:00 9,9 7,8 31 17 61 33 NW 1017,0 - 0,6
19.05.2017 00:00:00 10,4 8,3 34 18 71 38 NW 1016,9 - 0,6
18.05.2017 23:00:00 10,9 8,6 36 19 66 36 NW 1016,7 - 0,6
18.05.2017 22:00:00 11,5 9,2 29 16 73 39 NW 1016,2 - 0,8
18.05.2017 21:00:00 11,3 9,6 36 20 90 49 NW 1015,3 - 2,0
18.05.2017 20:00:00 12,7 9,9 40 22 86 47 NW 1014,7 - 0,2
18.05.2017 19:00:00 13,4 10,2 40 22 79 43 NW 1013,9 - 0,2
18.05.2017 18:00:00 15,2 9,5 39 21 77 42 WNW 1013,5 - 0,0
18.05.2017 17:00:00 17,9 13,0 21 11 47 25 NW 1013,4 20 0,0
18.05.2017 16:00:00 18,7 16,8 39 21 59 32 ZO 1011,3 - 0,0
18.05.2017 15:00:00 18,2 16,7 49 26 60 32 ZO 1011,0 - 0,0
18.05.2017 14:00:00 18,8 16,9 38 20 51 28 ZO 1011,9 - 0,0
18.05.2017 13:00:00 18,8 16,8 40 22 50 27 ZO 1012,1 - 0,0
18.05.2017 12:00:00 18,6 16,2 25 13 35 19 OZO 1012,8 - 0,0
18.05.2017 11:00:00 18,7 14,4 16 9 24 13 OZO 1013,3 25 0,0
18.05.2017 10:00:00 19,3 14,3 9 5 14 8 OZO 1013,9 - 0,0
18.05.2017 09:00:00 19,2 14,0 9 5 17 9 NNW 1013,9 - 0,0
18.05.2017 08:00:00 16,8 13,3 7 4 21 11 WNW 1014,0 25 0,0
18.05.2017 07:00:00 16,7 13,6 11 6 25 13 NW 1013,9 - 0,0
18.05.2017 06:00:00 16,5 14,3 11 6 25 13 NW 1013,9 - 0,0
18.05.2017 05:00:00 17,2 15,7 10 6 28 15 N 1014,2 20 0,0
18.05.2017 04:00:00 17,5 15,7 20 11 31 17 NNO 1014,6 - 0,0

tt = temperatuur
td = dauwpunt
ff = windsnelheid
fx = windstoten
dd = windrichting
ppp = luchtdruk
vv = zicht
rr = neerslag

Weerstations in de omgeving